Probability
52 77 97 94 94 94 97 97 94 87 84 84 90 87 87 87 87 84 77 77 77 74 68 68 65 61 58 61 58 55 55 48 52 55 58 55 55 58 68 74 84 71 94
45 84 97 94 94 97 97 97 94 90 90 90 90 90 87 84 84 81 74 71 68 71 61 58 58 58 55 55 55 52 48 48 45 52 52 55 61 68 74 77 90 84 94
61 81 97 100 97 97 97 97 97 94 87 90 90 87 87 84 84 77 71 68 61 55 55 48 45 45 42 45 45 45 45 48 48 48 45 35 45 65 77 74 81 90 94
55 71 94 100 97 97 97 97 97 94 90 90 90 87 87 84 77 71 71 65 58 58 52 42 39 39 42 42 42 42 35 39 42 48 29 32 29 61 84 81 84 81 84
52 61 94 97 100 100 100 97 94 90 90 90 84 84 81 77 71 68 65 58 52 55 52 42 42 42 39 35 39 35 39 32 29 32 19 23 16 55 77 77 81 81 84
52 68 87 100 100 100 100 94 90 87 84 81 84 81 74 68 68 65 65 58 52 48 48 45 45 42 42 42 39 39 39 29 29 23 16 19 16 52 74 74 74 77 77
45 58 81 94 97 94 90 84 84 87 84 81 77 77 71 68 65 61 65 58 55 52 52 48 48 48 42 42 39 42 32 26 19 19 16 19 23 65 77 74 74 77 77
42 58 74 84 77 77 87 87 87 84 84 81 77 71 65 58 65 58 55 52 55 52 48 45 52 48 48 48 45 39 32 32 19 16 16 19 32 65 68 68 71 71 74
42 58 68 68 71 77 81 77 81 81 81 81 71 68 61 55 52 48 45 52 45 45 42 45 45 45 48 45 48 35 39 35 29 19 16 19 35 65 68 65 65 65 68
39 48 65 65 65 65 65 74 71 71 71 65 61 52 48 48 48 52 52 52 45 48 45 45 45 48 48 45 42 39 39 32 26 23 13 13 45 61 58 61 61 61 65
39 42 48 55 55 61 61 61 61 61 55 55 45 45 52 39 32 39 45 45 48 45 45 45 48 48 52 42 45 45 32 23 19 13 13 19 45 52 52 48 52 52 55
42 39 48 48 45 45 55 58 52 48 48 42 39 42 32 26 29 32 35 42 42 35 35 45 45 45 35 29 26 35 26 19 13 13 16 32 45 42 45 48 48 48 48
45 42 48 42 42 35 32 42 45 39 39 29 29 29 26 26 23 26 29 32 32 32 32 32 32 32 26 19 16 13 13 13 13 13 13 39 39 39 39 42 42 45 45
45 45 42 42 29 29 35 39 32 26 23 23 23 23 23 23 23 23 19 23 23 26 23 23 23 23 19 19 10 6 6 10 10 3 6 32 35 35 35 39 42 42 39
42 39 45 39 29 32 19 29 29 26 19 19 19 23 23 19 23 23 19 23 19 13 13 13 13 10 10 13 10 10 6 6 6 3 3 26 32 35 29 35 35 35 29
29 32 45 35 32 26 23 23 19 16 13 19 23 23 26 23 19 16 16 16 10 10 6 10 3 3 3 3 3 6 6 3 3 3 3 13 26 29 29 29 32 29 26
29 26 29 35 32 32 29 23 19 16 13 19 26 29 26 19 16 13 13 13 10 6 6 6 3 3 3 3 3 6 6 6 3 3 3 3 13 26 29 29 26 29 19
26 29 29 32 29 32 35 19 16 13 10 10 19 23 26 16 13 10 13 10 6 6 6 6 6 6 3 3 6 6 6 3 3 3 3 6 10 10 16 23 23 23 23
19 23 19 26 26 26 29 26 23 19 13 13 23 23 10 13 13 16 10 10 6 6 3 3 6 3 0 0 0 0 0 0 0 0 3 3 6 6 6 13 16 16 16
16 16 19 16 19 19 23 29 23 19 16 16 16 19 13 13 13 13 13 10 6 6 3 3 3 3 3 3 3 3 0 0 0 0 3 3 3 3 6 3 10 16 16
16 16 16 16 16 19 23 23 23 16 16 13 13 13 13 13 10 3 6 3 3 3 3 3 3 3 3 3 3 3 0 0 3 3 3 3 3 3 6 3 3 6 10
19 23 16 16 26 23 26 26 16 6 6 6 3 10 13 16 10 13 6 6 3 3 0 3 3 3 0 0 0 0 0 0 0 0 0 0 0 3 3 3 3 3 0
19 23 23 26 23 26 23 23 16 10 10 3 3 6 10 16 6 6 6 3 0 0 0 3 3 0 0 0 0 0 0 0 0 0 0 0 0 0 0 3 3 3 3
23 23 23 23 19 19 23 23 19 13 10 6 6 6 6 13 10 6 10 3 0 0 0 0 3 0 0 0 0 0 0 0 0 0 0 0 0 0 0 0 3 3 0
23 19 19 13 13 19 23 19 13 6 3 3 3 6 6 6 10 6 10 3 3 3 0 0 3 0 0 0 0 0 0 0 0 0 0 0 0 0 0 0 0 0 0
19 19 13 13 13 13 19 16 13 10 6 6 3 3 3 3 3 6 6 6 3 3 3 0 0 0 0 0 0 0 0 0 0 0 0 0 0 0 0 0 0 0 3
Height
5893 5892 5893 5893 5893 5893 5893 5893 5893 5892 5892 5892 5891 5891 5890 5890 5889 5889 5888 5887 5887 5886 5885 5884 5883 5882 5881 5880 5880 5879 5878 5877 5877 5876 5875 5874 5874 5874 5873 5873 5873 5873 5873
5891 5891 5892 5892 5892 5892 5892 5892 5892 5891 5891 5891 5890 5890 5889 5889 5888 5888 5887 5886 5885 5884 5883 5882 5881 5880 5879 5879 5878 5877 5876 5875 5874 5874 5873 5872 5872 5871 5871 5871 5871 5871 5871
5890 5890 5890 5890 5891 5891 5891 5890 5890 5890 5890 5889 5889 5888 5888 5887 5887 5886 5885 5884 5883 5882 5881 5880 5879 5878 5877 5876 5875 5875 5874 5873 5872 5872 5871 5870 5870 5869 5869 5869 5868 5868 5868
5888 5888 5888 5889 5889 5889 5889 5889 5889 5888 5888 5887 5887 5887 5886 5885 5885 5884 5883 5882 5881 5880 5879 5878 5877 5876 5875 5874 5873 5872 5871 5870 5870 5869 5868 5868 5867 5867 5866 5866 5866 5866 5866
5887 5887 5887 5887 5887 5887 5887 5887 5886 5886 5886 5885 5885 5884 5884 5883 5883 5882 5881 5880 5879 5878 5877 5876 5875 5874 5873 5871 5870 5869 5868 5868 5867 5866 5866 5865 5864 5864 5864 5863 5863 5863 5863
5885 5884 5884 5884 5884 5884 5884 5884 5884 5884 5883 5883 5883 5882 5881 5881 5880 5879 5879 5878 5877 5875 5874 5873 5872 5871 5870 5869 5867 5866 5865 5865 5864 5863 5862 5862 5861 5861 5861 5860 5860 5860 5860
5882 5882 5882 5882 5882 5882 5882 5882 5881 5881 5881 5880 5880 5879 5879 5878 5877 5876 5876 5875 5874 5873 5871 5870 5869 5868 5867 5866 5865 5863 5862 5861 5861 5860 5859 5859 5858 5858 5857 5857 5857 5857 5857
5879 5879 5879 5879 5879 5879 5879 5879 5878 5878 5878 5877 5877 5877 5876 5875 5874 5873 5873 5872 5871 5869 5868 5867 5866 5865 5864 5863 5861 5860 5859 5858 5858 5857 5856 5856 5855 5855 5854 5854 5854 5854 5854
5876 5876 5876 5876 5876 5876 5876 5876 5875 5875 5875 5874 5874 5873 5873 5872 5871 5870 5869 5868 5867 5866 5865 5864 5862 5861 5860 5859 5858 5857 5855 5855 5854 5853 5853 5852 5851 5851 5850 5850 5850 5850 5850
5873 5873 5872 5872 5872 5872 5872 5872 5872 5872 5872 5871 5871 5870 5869 5868 5867 5867 5866 5865 5864 5862 5861 5860 5858 5857 5856 5855 5854 5853 5852 5851 5850 5849 5849 5848 5847 5847 5846 5846 5846 5846 5846
5870 5869 5869 5868 5868 5868 5868 5868 5869 5869 5868 5868 5867 5866 5865 5864 5863 5863 5862 5861 5859 5858 5857 5856 5854 5853 5852 5851 5849 5848 5848 5847 5846 5845 5844 5844 5843 5843 5842 5842 5842 5842 5842
5866 5865 5865 5865 5865 5865 5865 5864 5864 5864 5864 5864 5863 5862 5862 5861 5859 5858 5857 5856 5855 5854 5852 5851 5850 5849 5848 5846 5845 5844 5843 5842 5841 5840 5840 5839 5839 5838 5837 5837 5837 5837 5837
5862 5861 5862 5861 5861 5861 5860 5860 5860 5860 5860 5859 5859 5858 5857 5856 5855 5854 5853 5852 5850 5849 5847 5846 5845 5844 5843 5842 5840 5839 5838 5837 5837 5836 5835 5834 5834 5833 5833 5832 5832 5832 5832
5858 5857 5857 5857 5857 5856 5856 5856 5856 5855 5855 5855 5854 5853 5852 5851 5850 5849 5848 5847 5845 5844 5842 5842 5840 5839 5838 5836 5835 5834 5833 5832 5831 5831 5830 5829 5828 5828 5827 5827 5827 5827 5826
5853 5853 5853 5852 5852 5852 5852 5852 5852 5851 5850 5850 5849 5848 5847 5846 5845 5844 5843 5842 5840 5839 5837 5836 5835 5834 5832 5831 5830 5829 5828 5827 5826 5825 5825 5824 5823 5822 5822 5821 5821 5821 5820
5848 5848 5848 5848 5848 5848 5848 5847 5847 5846 5845 5844 5844 5843 5842 5841 5840 5838 5837 5836 5835 5833 5832 5831 5829 5828 5827 5826 5824 5823 5822 5821 5820 5820 5819 5818 5817 5816 5816 5815 5815 5815 5814
5845 5844 5844 5844 5843 5843 5843 5842 5841 5840 5840 5839 5838 5838 5837 5835 5834 5833 5831 5830 5828 5827 5826 5824 5823 5822 5821 5820 5818 5817 5816 5815 5814 5814 5813 5812 5811 5810 5809 5809 5808 5808 5808
5839 5839 5839 5839 5838 5838 5838 5837 5836 5835 5835 5834 5833 5832 5831 5830 5828 5827 5825 5823 5822 5820 5819 5818 5816 5815 5814 5813 5812 5811 5810 5809 5808 5807 5807 5806 5805 5804 5803 5802 5801 5801 5801
5835 5835 5835 5834 5833 5833 5833 5832 5831 5830 5828 5828 5827 5825 5825 5824 5823 5821 5820 5817 5816 5814 5812 5811 5810 5809 5808 5807 5806 5805 5804 5803 5802 5801 5800 5799 5798 5797 5796 5795 5795 5794 5794
5831 5831 5830 5829 5828 5828 5827 5826 5826 5825 5824 5824 5823 5821 5820 5819 5817 5816 5814 5812 5810 5808 5806 5804 5803 5802 5801 5800 5799 5798 5797 5797 5795 5794 5793 5792 5791 5790 5789 5788 5787 5787 5786
5827 5826 5824 5823 5823 5822 5822 5822 5822 5821 5820 5819 5818 5817 5815 5814 5812 5810 5808 5807 5805 5802 5800 5798 5797 5796 5795 5794 5793 5792 5791 5790 5789 5788 5787 5785 5784 5783 5782 5781 5780 5779 5779
5822 5821 5819 5818 5818 5818 5818 5817 5817 5816 5814 5813 5812 5811 5810 5809 5807 5805 5803 5801 5799 5796 5794 5792 5791 5790 5789 5788 5787 5785 5784 5784 5782 5781 5780 5778 5777 5775 5774 5773 5772 5771 5770
5818 5817 5816 5815 5815 5814 5814 5813 5812 5811 5809 5808 5807 5806 5805 5803 5801 5799 5797 5795 5793 5790 5788 5786 5785 5784 5782 5781 5780 5779 5777 5776 5775 5774 5772 5771 5769 5768 5766 5765 5764 5763 5761
5815 5814 5813 5812 5811 5811 5810 5808 5807 5806 5805 5804 5803 5801 5799 5798 5796 5794 5791 5790 5787 5785 5782 5781 5779 5778 5776 5775 5773 5772 5770 5769 5768 5767 5765 5763 5761 5759 5757 5756 5755 5753 5752
5811 5810 5809 5808 5808 5807 5806 5804 5803 5801 5800 5799 5797 5796 5794 5792 5790 5788 5786 5784 5781 5779 5776 5774 5773 5771 5770 5768 5766 5765 5763 5761 5759 5758 5757 5755 5753 5750 5748 5747 5745 5744 5742
5807 5806 5805 5805 5804 5803 5801 5800 5798 5797 5795 5794 5792 5790 5789 5787 5785 5783 5780 5778 5776 5773 5771 5769 5767 5765 5764 5762 5760 5758 5755 5753 5751 5749 5748 5746 5744 5742 5739 5737 5735 5733 5731
Wind_Speed
6 6 6 5 5 6 6 6 6 7 7 8 8 8 9 9 9 10 10 10 10 10 10 10 11 11 11 11 11 11 11 11 11 11 11 11 11 11 11 11 11 11 11
7 7 7 6 6 6 7 7 8 8 8 8 9 9 9 9 10 10 11 11 11 11 11 11 12 12 13 13 12 12 12 12 11 11 11 12 12 12 12 12 12 12 12
8 8 7 7 7 7 8 8 9 9 9 9 10 10 10 10 11 11 12 12 12 13 13 13 13 13 14 14 14 13 13 12 12 11 12 12 12 13 13 13 14 13 13
9 8 8 8 9 9 9 10 10 10 11 11 11 11 11 11 12 12 13 13 14 14 14 14 14 14 14 15 14 14 14 14 13 13 13 14 14 14 14 14 14 14 14
11 10 9 10 11 11 11 11 11 11 11 12 12 12 12 13 13 13 13 14 15 15 15 16 16 15 15 15 15 15 16 15 15 14 15 15 15 15 15 15 14 15 15
13 12 12 12 12 12 13 13 12 12 12 12 13 13 13 13 13 14 14 15 16 16 16 17 17 16 15 15 15 16 16 16 15 15 16 16 16 15 15 15 15 16 16
13 14 13 13 12 13 14 14 13 13 12 13 13 13 13 14 14 15 16 16 17 17 17 17 17 16 16 16 16 16 16 16 16 16 16 16 16 16 16 17 17 17 17
14 15 14 14 14 14 14 14 15 14 14 14 14 14 14 15 15 16 16 17 17 17 17 17 17 17 17 16 16 17 17 16 16 16 16 16 16 17 17 17 18 18 18
16 16 16 16 15 14 15 15 16 15 15 15 15 15 15 15 16 16 17 17 17 18 18 18 18 18 18 17 17 17 17 17 16 16 16 16 16 17 18 18 18 18 18
17 18 18 16 15 16 16 16 16 15 15 15 16 16 16 17 17 17 18 17 18 18 18 18 19 19 18 18 18 18 18 17 17 17 17 17 17 17 18 19 19 19 19
15 16 17 16 16 16 16 16 16 16 16 16 16 16 17 17 17 18 18 18 18 18 19 19 19 19 19 18 18 18 18 17 18 17 17 17 18 18 19 19 20 20 20
17 16 16 15 16 16 17 16 17 17 17 17 17 17 17 18 17 18 18 18 19 19 20 20 20 20 20 19 19 19 18 18 18 17 17 18 19 19 19 20 21 21 21
17 17 16 15 15 16 17 16 17 18 18 18 18 18 19 18 18 18 19 20 20 20 20 21 21 21 21 21 20 19 19 19 19 19 19 19 19 20 20 21 22 22 22
17 18 18 18 18 18 18 18 18 19 19 19 19 19 19 19 19 19 20 20 21 21 21 21 21 22 22 21 21 21 21 21 21 21 21 21 21 21 21 22 23 23 23
18 17 18 19 19 18 18 19 20 20 20 20 20 20 19 20 20 21 21 21 21 21 22 23 23 22 22 21 22 22 22 22 22 22 22 22 22 22 23 23 24 24 24
18 18 18 18 17 18 18 19 20 21 21 21 21 21 20 21 21 21 21 22 22 22 23 24 23 23 23 23 23 22 22 22 23 23 24 24 24 23 24 24 25 25 25
18 18 18 18 19 19 19 19 20 21 22 21 21 21 21 21 22 22 22 23 23 23 24 24 24 24 24 24 23 23 24 24 24 24 24 24 24 25 25 25 26 26 27
18 18 17 18 19 19 19 20 20 20 20 21 22 22 21 22 22 23 24 24 24 25 25 25 25 25 24 24 24 24 25 25 24 25 25 25 25 25 25 25 25 26 28
20 18 17 18 18 18 18 19 19 20 20 20 22 22 22 23 23 23 24 24 25 24 25 25 25 25 25 25 25 25 25 24 24 24 25 25 25 26 26 26 26 27 27
19 19 20 19 18 18 18 18 19 19 19 20 22 21 21 22 22 23 23 23 24 24 24 25 25 25 25 26 25 24 24 24 24 24 25 26 27 27 27 27 28 28 28
18 19 19 18 18 17 17 18 18 19 20 21 21 22 22 22 22 23 22 21 22 22 24 24 24 24 24 24 23 23 23 24 25 25 26 27 27 28 28 28 28 28 29
17 18 17 15 16 17 16 17 18 19 20 21 21 21 22 21 21 22 22 21 22 23 23 24 23 23 24 24 23 23 24 24 25 26 26 27 27 28 29 29 29 29 30
16 16 15 15 15 15 16 17 18 19 20 20 21 21 21 21 20 21 20 21 22 22 22 21 21 21 22 23 23 23 24 24 25 26 26 26 27 27 29 30 30 30 30
15 14 14 14 13 14 15 16 17 18 19 19 20 20 21 20 20 21 21 21 21 21 21 22 22 21 21 22 23 24 24 24 25 26 27 28 28 28 29 30 31 32 32
14 14 14 12 12 13 15 16 17 17 18 18 18 18 19 19 20 20 21 21 21 22 22 21 21 21 21 22 23 24 25 26 26 27 27 28 29 29 30 31 32 33 33
13 14 14 14 13 13 15 16 17 17 18 17 17 17 18 19 20 20 21 21 22 21 21 20 20 21 21 22 24 25 26 26 27 28 28 29 30 30 31 32 33 34 35
Wind_Direction
280 277 271 274 272 278 278 280 283 286 288 290 290 287 286 286 286 288 291 294 295 295 293 291 290 289 287 287 286 287 286 283 282 277 273 270 268 267 265 264 260 258 257
282 273 273 277 281 285 283 282 281 282 284 285 286 286 283 282 282 286 290 293 293 291 291 291 291 289 288 286 286 287 285 283 281 278 274 271 269 267 266 264 262 260 258
283 273 269 274 278 283 282 283 283 280 278 278 281 282 280 280 281 285 287 289 289 289 289 289 288 288 289 289 288 287 284 283 281 278 276 271 267 264 264 263 261 259 256
280 276 271 270 272 275 279 280 284 281 276 275 277 278 279 279 281 284 285 285 286 288 288 288 287 287 288 289 289 286 285 283 280 277 275 271 267 264 263 263 260 257 254
279 278 271 272 271 273 276 279 280 278 278 278 277 279 280 280 281 283 284 284 285 287 288 289 287 286 287 287 287 285 284 283 280 277 276 274 270 265 261 261 260 258 256
276 275 272 271 273 273 274 278 279 277 278 279 279 280 281 280 280 282 284 285 286 287 288 289 288 286 286 286 286 285 285 283 280 277 275 273 271 268 263 261 261 260 257
271 271 271 270 273 274 274 276 277 279 278 278 280 282 281 281 283 283 283 285 286 286 288 289 287 286 286 285 286 287 286 283 280 278 276 273 270 267 264 262 261 261 258
272 272 271 272 273 275 275 275 275 277 277 277 277 279 281 282 283 283 284 286 286 286 287 287 286 285 285 284 285 285 285 285 281 279 277 274 269 267 265 264 263 261 259
272 273 271 269 268 271 274 273 272 273 276 278 276 278 281 282 283 284 284 285 285 286 285 284 285 286 285 284 285 284 283 284 282 280 277 275 271 269 267 266 264 261 259
273 273 270 267 269 270 274 272 272 273 274 276 277 278 281 282 282 284 283 283 284 285 284 284 283 286 287 284 282 284 284 282 281 279 277 275 272 270 268 266 263 261 261
277 277 275 271 270 269 271 269 270 273 271 273 276 277 279 281 283 284 284 284 284 283 283 284 283 284 285 284 282 281 282 280 278 277 276 274 272 270 268 265 263 262 261
275 280 279 276 271 268 269 269 270 272 273 275 276 276 277 280 281 282 283 285 285 283 282 283 283 283 283 283 282 281 281 279 276 275 275 274 273 271 268 266 264 262 260
276 280 281 280 278 275 272 273 275 275 274 275 275 275 277 279 279 280 283 285 285 283 282 282 282 282 283 281 281 281 279 278 276 273 272 273 273 272 270 269 267 264 262
274 275 277 279 274 276 275 274 276 276 278 279 279 279 279 281 280 280 282 283 284 283 280 280 282 282 283 282 281 279 278 276 275 273 272 271 272 272 271 269 267 264 263
276 273 274 277 275 275 273 272 275 278 279 280 278 280 282 282 280 281 282 283 282 281 281 281 282 283 284 282 279 277 276 274 273 273 273 272 272 273 271 269 267 265 263
274 269 271 274 273 275 271 271 277 276 277 276 277 277 280 280 280 281 282 281 281 280 281 281 281 282 282 282 280 277 275 273 272 272 273 273 272 272 271 269 266 264 264
276 272 273 272 273 273 273 273 277 274 275 275 277 278 280 280 280 281 281 281 281 280 280 280 280 280 281 281 279 277 275 274 272 272 273 273 273 273 271 269 267 265 264
281 275 271 271 270 272 273 274 277 276 275 278 281 281 282 283 282 282 282 282 283 282 280 279 280 281 280 280 277 275 274 273 272 272 273 274 275 274 272 271 268 266 264
285 283 275 272 271 272 274 276 280 281 278 282 285 283 282 282 282 284 286 284 284 284 283 281 281 281 280 279 278 276 274 274 273 273 274 275 274 273 272 271 269 268 266
283 284 280 275 276 275 277 279 281 282 283 284 285 285 284 285 283 284 287 286 285 285 285 283 282 281 280 279 279 278 277 276 275 274 274 274 273 272 272 271 270 269 269
282 283 285 281 276 273 276 278 279 281 284 285 286 283 284 285 286 287 286 287 286 288 285 282 282 281 282 281 281 281 280 278 277 277 276 275 274 272 271 270 270 270 271
282 284 286 284 276 274 275 279 281 282 284 285 288 286 284 286 288 289 285 286 288 289 289 285 283 281 282 282 283 281 279 279 278 278 277 276 274 272 271 271 270 271 271
287 288 288 288 281 279 279 282 285 285 287 287 287 288 287 288 290 291 288 290 290 291 292 289 287 285 284 283 283 283 282 281 282 282 280 278 276 275 273 272 272 272 271
289 288 291 291 288 286 288 289 289 288 288 288 287 287 288 289 290 290 289 293 292 290 290 289 287 286 287 287 288 288 286 284 285 283 281 280 279 278 276 274 273 272 271
289 290 292 292 289 290 290 291 292 291 289 289 287 287 288 289 292 292 292 291 293 293 294 291 289 288 289 290 291 291 289 288 287 285 283 282 280 279 277 275 274 273 272
291 295 297 299 297 295 296 293 293 292 290 286 286 286 286 288 291 291 292 291 292 294 295 294 294 292 292 292 292 291 291 290 289 288 287 285 282 280 279 278 277 275 274